This demonstration page uses our WeatherBlox Daily Observations layout. Learn more.

40.92945, -100.16068

Hourly Observations for August 1, 2016

Temp ( °F °C ) Dew Point ( °F °C ) Humidity (%) Winds ( mph kmh ) Pressure ( in mb ) Visibility ( mi km ) Precip ( " mm )
12:15 am 00:15 Clear 76 24.7 73 22.6 88 88 SE 8 13 29.74 1007 10 16.09344 0 0
12:35 am 00:35 Clear 76 24.7 73 22.7 89 89 SE 9 15 29.74 1007 10 16.09344 0 0
12:55 am 00:55 Clear 76 24.6 73 22.7 89 89 SE 8 13 29.74 1007 10 16.09344 0 0
1:15 am 01:15 Clear 76 24.3 73 22.7 91 91 Calm 29.74 1007 10 16.09344 0 0
1:35 am 01:35 Clear 75 24.1 73 22.5 91 91 Calm 29.74 1007 10 16.09344 0 0
1:55 am 01:55 Clear 74 23.2 71 21.7 91 91 NW 8 13 29.74 1007 7 11.265408 0 0
2:15 am 02:15 Clear with Mist and Fog 74 23.1 72 22.1 94 94 NNW 5 7 29.74 1007 4 6.437376 0 0
2:35 am 02:35 Clear with Mist and Fog 73 22.9 71 21.9 94 94 NE 3 6 29.71 1006 3 4.828032 0 0
2:55 am 02:55 Clear with Mist and Fog 73 22.5 71 21.6 95 95 NE 3 6 29.71 1006 3 4.828032 0 0
3:15 am 03:15 Clear with Mist and Fog 73 22.5 71 21.6 95 95 NNE 3 6 29.71 1006 3 4.828032 0 0
3:35 am 03:35 Mostly Cloudy with Mist and Fog 72 22 70 21.1 95 95 Calm 29.71 1006 1.5 2.414016 0 0
3:55 am 03:55 Mostly Cloudy with Fog 72 22 70 21.1 95 95 E 3 6 29.71 1006 0.5 0.804672 0 0
4:15 am 04:15 Mostly Cloudy with Fog 71 21.5 69 20.6 95 95 Calm 29.71 1006 0.25 0.402336 0 0
4:35 am 04:35 Cloudy with Fog 70 21 68 20.1 95 95 Calm 29.74 1007 0 0 0 0
4:55 am 04:55 Cloudy with Fog 69 20.8 68 20 95 95 Calm 29.74 1007 0.25 0.402336 0 0
5:15 am 05:15 Cloudy with Fog 69 20.6 68 19.8 95 95 Calm 29.74 1007 0 0 0 0
5:35 am 05:35 Cloudy with Fog 70 21 68 20.2 95 95 Calm 29.74 1007 0 0 0 0
5:55 am 05:55 Cloudy with Fog 70 21.3 69 20.5 95 95 Calm 29.74 1007 0 0 0 0
6:15 am 06:15 Cloudy with Fog 70 21.2 69 20.5 96 96 NW 5 7 29.77 1008 0.25 0.402336 0 0
6:35 am 06:35 Cloudy with Fog 70 21.3 69 20.5 95 95 Calm 29.77 1008 0 0 0 0
6:55 am 06:55 Cloudy with Fog 71 21.5 69 20.7 95 95 Calm 29.77 1008 0 0 0 0
7:15 am 07:15 Cloudy with Fog 71 21.6 70 20.9 96 96 Calm 29.8 1009 0 0 0 0
7:35 am 07:35 Cloudy with Fog 71 21.6 69 20.8 95 95 NNE 3 6 29.8 1009 0 0 0 0
7:55 am 07:55 Cloudy with Fog 71 21.8 70 21 95 95 Calm 29.8 1009 0 0 0 0
8:15 am 08:15 Cloudy with Fog 72 22.1 71 21.4 96 96 Calm 29.8 1009 0 0 0 0
8:35 am 08:35 Cloudy with Fog 72 22.3 71 21.5 95 95 Calm 29.77 1008 0.25 0.402336 0 0
8:55 am 08:55 Cloudy with Fog 73 22.5 71 21.7 95 95 Calm 29.77 1008 0 0 0 0
9:15 am 09:15 Cloudy with Fog 73 22.7 71 21.9 95 95 Calm 29.77 1008 0 0 0 0
9:35 am 09:35 Cloudy with Fog 74 23.6 73 22.8 95 95 Calm 29.77 1008 0 0 0 0
9:55 am 09:55 Cloudy with Mist and Fog 74 23.4 73 22.6 95 95 NNE 9 15 29.8 1009 0.75 1.207008 0 0
10:15 am 10:15 Mostly Cloudy with Mist and Fog 75 24.1 74 23.3 95 95 NE 7 11 29.8 1009 4 6.437376 0 0
10:35 am 10:35 Partly Cloudy 76 24.6 75 23.7 95 95 ESE 6 9 29.8 1009 10 16.09344 0 0
10:55 am 10:55 Partly Cloudy 78 25.5 76 24.2 93 93 ENE 9 15 29.8 1009 10 16.09344 0 0
11:15 am 11:15 Partly Cloudy 78 25.8 75 24 90 90 ENE 7 11 29.8 1009 10 16.09344 0 0
11:35 am 11:35 Sunny 79 26.3 74 23.6 85 85 E 6 9 29.77 1008 10 16.09344 0 0
11:55 am 11:55 Sunny 81 27 75 23.9 83 83 ESE 8 13 29.77 1008 10 16.09344 0 0
12:15 pm 12:15 Sunny 83 28.6 75 23.7 75 75 ESE 9 15 29.77 1008 10 16.09344 0 0
12:35 pm 12:35 Sunny 84 28.8 75 23.7 74 74 E 8 13 29.77 1008 10 16.09344 0 0
12:55 pm 12:55 Sunny 85 29.4 74 23.4 70 70 SE 10 17 29.77 1008 10 16.09344 0 0
1:15 pm 13:15 Sunny 84 29 74 23.6 73 73 E 10 17 29.77 1008 10 16.09344 0 0
1:35 pm 13:35 Sunny 85 29.4 76 24.2 74 74 E 10 17 29.77 1008 10 16.09344 0 0
1:55 pm 13:55 Sunny 85 29.5 74 23.1 68 68 E 13 20 29.77 1008 10 16.09344 0 0
2:15 pm 14:15 Sunny 86 30 75 23.9 70 70 ESE 12 19 29.71 1006 10 16.09344 0 0
2:35 pm 14:35 Sunny 88 30.9 74 23.6 65 65 ESE 14 22 29.74 1007 10 16.09344 0 0
2:55 pm 14:55 Sunny 88 31 75 23.7 65 65 ESE 15 24 29.71 1006 10 16.09344 0 0
3:15 pm 15:15 Sunny 89 31.4 73 22.7 60 60 ESE 15 24 29.71 1006 10 16.09344 0 0
3:35 pm 15:35 Sunny 88 31.3 72 22.2 58 58 ESE 14 22 29.71 1006 10 16.09344 0 0
3:55 pm 15:55 Sunny 89 31.9 73 22.9 59 59 ESE 13 20 29.71 1006 10 16.09344 0 0
4:15 pm 16:15 Sunny 90 32 74 23.4 60 60 ESE 14 22 29.71 1006 10 16.09344 0 0
4:35 pm 16:35 Partly Cloudy 92 33.3 73 22.5 53 53 SSE 13 20 29.68 1005 10 16.09344 0 0
4:55 pm 16:55 Partly Cloudy 90 32.2 69 20.4 50 50 SE 10 17 29.71 1006 10 16.09344 0 0
5:15 pm 17:15 Sunny 90 32 70 20.9 52 52 ESE 10 17 29.71 1006 10 16.09344 0 0
5:35 pm 17:35 Sunny 90 32.1 69 20.8 51 51 SE 13 20 29.71 1006 10 16.09344 0 0
5:55 pm 17:55 Sunny 89 31.8 71 21.5 54 54 ESE 7 11 29.71 1006 10 16.09344 0 0
6:15 pm 18:15 Sunny 88 31.3 73 22.5 60 60 ESE 7 11 29.71 1006 10 16.09344 0 0
6:35 pm 18:35 Sunny 88 31.2 73 22.9 61 61 E 7 11 29.71 1006 10 16.09344 0 0
6:55 pm 18:55 Sunny 86 30 76 24.3 72 72 ENE 7 11 29.71 1006 10 16.09344 0 0
7:15 pm 19:15 Sunny 88 31.1 76 24.2 67 67 E 9 15 29.71 1006 10 16.09344 0 0
7:35 pm 19:35 Sunny 87 30.8 75 24.1 67 67 ENE 10 17 29.71 1006 10 16.09344 0 0
7:55 pm 19:55 Sunny 86 30.1 75 23.9 69 69 ENE 9 15 29.71 1006 10 16.09344 0 0
8:15 pm 20:15 Sunny 85 29.7 74 23.5 69 69 ENE 9 15 29.71 1006 10 16.09344 0 0
8:35 pm 20:35 Sunny 84 29.1 74 23.5 72 72 ENE 7 11 29.77 1008 10 16.09344 0 0
8:55 pm 20:55 Clear 83 28.2 74 23.5 76 76 ENE 8 13 29.74 1007 10 16.09344 0 0
9:15 pm 21:15 Clear 83 28.2 74 23.1 74 74 E 9 15 29.77 1008 10 16.09344 0 0
9:35 pm 21:35 Clear 83 28.2 73 23 73 73 ESE 7 11 29.77 1008 10 16.09344 0 0
9:55 pm 21:55 Clear 82 27.6 74 23.1 77 77 ESE 8 13 29.77 1008 10 16.09344 0 0
10:15 pm 22:15 Clear 82 27.5 74 23.3 78 78 SSE 7 11 29.8 1009 10 16.09344 0 0
10:35 pm 22:35 Clear 80 26.7 74 23.5 83 83 SSE 6 9 29.8 1009 10 16.09344 0 0
10:55 pm 22:55 Clear 79 26.3 74 23.5 85 85 E 3 6 29.8 1009 10 16.09344 0 0
11:15 pm 23:15 Clear 78 25.6 74 23.3 87 87 E 7 11 29.83 1010 10 16.09344 0 0
11:35 pm 23:35 Clear 78 25.5 74 23.6 89 89 ENE 6 9 29.83 1010 10 16.09344 0 0
11:55 pm 23:55 Clear 77 25 74 23.4 91 91 ENE 6 9 29.8 1009 10 16.09344 0 0

Powered by AerisWeather